Year,Month,Day,Hour,Minute,Value (Times are PST for temperature in C)
2013,08,22,00,00,15.50
2013,08,22,00,01,15.50
2013,08,22,00,02,15.50
2013,08,22,00,03,15.50
2013,08,22,00,04,15.40
2013,08,22,00,05,15.40
2013,08,22,00,06,15.40
2013,08,22,00,07,15.30
2013,08,22,00,08,15.30
2013,08,22,00,09,15.30
2013,08,22,00,10,15.30
2013,08,22,00,11,15.30
2013,08,22,00,12,15.20
2013,08,22,00,13,15.20
2013,08,22,00,14,15.20
2013,08,22,00,15,15.10
2013,08,22,00,16,15.10
2013,08,22,00,17,15.00
2013,08,22,00,18,15.00
2013,08,22,00,19,15.00
2013,08,22,00,20,14.90
2013,08,22,00,21,14.90
2013,08,22,00,22,14.80
2013,08,22,00,23,14.80
2013,08,22,00,24,14.80
2013,08,22,00,25,14.80
2013,08,22,00,26,14.80
2013,08,22,00,27,14.80
2013,08,22,00,28,14.80
2013,08,22,00,29,14.80
2013,08,22,00,30,14.80
2013,08,22,00,31,14.80
2013,08,22,00,32,14.80
2013,08,22,00,33,14.80
2013,08,22,00,34,14.80
2013,08,22,00,35,14.80
2013,08,22,00,36,14.80
2013,08,22,00,37,14.80
2013,08,22,00,38,14.80
2013,08,22,00,39,14.80
2013,08,22,00,40,14.80
2013,08,22,00,41,14.80
2013,08,22,00,42,14.80
2013,08,22,00,43,14.80
2013,08,22,00,44,14.80
2013,08,22,00,45,14.80
2013,08,22,00,46,14.80
2013,08,22,00,47,14.80
2013,08,22,00,48,14.80
2013,08,22,00,49,14.70
2013,08,22,00,50,14.70
2013,08,22,00,51,14.70
2013,08,22,00,52,14.60
2013,08,22,00,53,14.60
2013,08,22,00,54,14.60
2013,08,22,00,55,14.60
2013,08,22,00,56,14.50
2013,08,22,00,57,14.50
2013,08,22,00,58,14.50
2013,08,22,00,59,14.40
2013,08,22,01,00,14.40
2013,08,22,01,01,14.40
2013,08,22,01,02,14.30
2013,08,22,01,03,14.30
2013,08,22,01,04,14.40
2013,08,22,01,05,14.40
2013,08,22,01,06,14.40
2013,08,22,01,07,14.40
2013,08,22,01,08,14.40
2013,08,22,01,09,14.40
2013,08,22,01,10,14.40
2013,08,22,01,11,14.40
2013,08,22,01,12,14.40
2013,08,22,01,13,14.50
2013,08,22,01,14,14.50
2013,08,22,01,15,14.50
2013,08,22,01,16,14.50
2013,08,22,01,17,14.50
2013,08,22,01,18,14.50
2013,08,22,01,19,14.40
2013,08,22,01,20,14.40
2013,08,22,01,21,14.40
2013,08,22,01,22,14.40
2013,08,22,01,23,14.40
2013,08,22,01,24,14.40
2013,08,22,01,25,14.30
2013,08,22,01,26,14.30
2013,08,22,01,27,14.30
2013,08,22,01,28,14.30
2013,08,22,01,29,14.20
2013,08,22,01,30,14.20
2013,08,22,01,31,14.20
2013,08,22,01,32,14.20
2013,08,22,01,33,14.20
2013,08,22,01,34,14.20
2013,08,22,01,35,14.20
2013,08,22,01,36,14.20
2013,08,22,01,37,14.20
2013,08,22,01,38,14.20
2013,08,22,01,39,14.20
2013,08,22,01,40,14.20
2013,08,22,01,41,14.20
2013,08,22,01,42,14.20
2013,08,22,01,43,14.30
2013,08,22,01,44,14.30
2013,08,22,01,45,14.30
2013,08,22,01,46,14.30
2013,08,22,01,47,14.30
2013,08,22,01,48,14.30
2013,08,22,01,49,14.30
2013,08,22,01,50,14.30
2013,08,22,01,51,14.30
2013,08,22,01,52,14.30
2013,08,22,01,53,14.30
2013,08,22,01,54,14.20
2013,08,22,01,55,14.20
2013,08,22,01,56,14.20
2013,08,22,01,57,14.20
2013,08,22,01,58,14.20
2013,08,22,01,59,14.20
2013,08,22,02,00,14.10
2013,08,22,02,01,14.10
2013,08,22,02,02,14.10
2013,08,22,02,03,14.00
2013,08,22,02,04,14.00
2013,08,22,02,05,14.00
2013,08,22,02,06,13.90
2013,08,22,02,07,13.90
2013,08,22,02,08,13.80
2013,08,22,02,09,13.80
2013,08,22,02,10,13.80
2013,08,22,02,11,13.70
2013,08,22,02,12,13.70
2013,08,22,02,13,13.70
2013,08,22,02,14,13.60
2013,08,22,02,15,13.60
2013,08,22,02,16,13.50
2013,08,22,02,17,13.50
2013,08,22,02,18,13.50
2013,08,22,02,19,13.40
2013,08,22,02,20,13.40
2013,08,22,02,21,13.40
2013,08,22,02,22,13.40
2013,08,22,02,23,13.30
2013,08,22,02,24,13.30
2013,08,22,02,25,13.30
2013,08,22,02,26,13.30
2013,08,22,02,27,13.20
2013,08,22,02,28,13.20
2013,08,22,02,29,13.20
2013,08,22,02,30,13.20
2013,08,22,02,31,13.20
2013,08,22,02,32,13.20
2013,08,22,02,33,13.10
2013,08,22,02,34,13.10
2013,08,22,02,35,13.10
2013,08,22,02,36,13.10
2013,08,22,02,37,13.00
2013,08,22,02,38,13.00
2013,08,22,02,39,13.00
2013,08,22,02,40,13.00
2013,08,22,02,41,12.90
2013,08,22,02,42,13.00
2013,08,22,02,43,13.00
2013,08,22,02,44,13.00
2013,08,22,02,45,13.00
2013,08,22,02,46,13.00
2013,08,22,02,47,13.00
2013,08,22,02,48,13.00
2013,08,22,02,49,13.00
2013,08,22,02,50,13.00
2013,08,22,02,51,13.00
2013,08,22,02,52,13.00
2013,08,22,02,53,13.00
2013,08,22,02,54,13.10
2013,08,22,02,55,13.10
2013,08,22,02,56,13.20
2013,08,22,02,57,13.20
2013,08,22,02,58,13.20
2013,08,22,02,59,13.20
2013,08,22,03,00,13.20
2013,08,22,03,01,13.10
2013,08,22,03,02,13.10
2013,08,22,03,03,13.10
2013,08,22,03,04,13.10
2013,08,22,03,05,13.10
2013,08,22,03,06,13.10
2013,08,22,03,07,13.00
2013,08,22,03,08,13.00
2013,08,22,03,09,13.00
2013,08,22,03,10,13.00
2013,08,22,03,11,12.90
2013,08,22,03,12,12.90
2013,08,22,03,13,12.90
2013,08,22,03,14,12.90
2013,08,22,03,15,12.80
2013,08,22,03,16,12.80
2013,08,22,03,17,12.80
2013,08,22,03,18,12.80
2013,08,22,03,19,12.80
2013,08,22,03,20,12.80
2013,08,22,03,21,12.80
2013,08,22,03,22,12.80
2013,08,22,03,23,12.80
2013,08,22,03,24,12.80
2013,08,22,03,25,12.70
2013,08,22,03,26,12.80
2013,08,22,03,27,12.80
2013,08,22,03,28,12.80
2013,08,22,03,29,12.80
2013,08,22,03,30,12.70
2013,08,22,03,31,12.70
2013,08,22,03,32,12.70
2013,08,22,03,33,12.70
2013,08,22,03,34,12.60
2013,08,22,03,35,12.60
2013,08,22,03,36,12.60
2013,08,22,03,37,12.60
2013,08,22,03,38,12.60
2013,08,22,03,39,12.60
2013,08,22,03,40,12.50
2013,08,22,03,41,12.50
2013,08,22,03,42,12.50
2013,08,22,03,43,12.50
2013,08,22,03,44,12.50
2013,08,22,03,45,12.50
2013,08,22,03,46,12.40
2013,08,22,03,47,12.40
2013,08,22,03,48,12.40
2013,08,22,03,49,12.40
2013,08,22,03,50,12.40
2013,08,22,03,51,12.40
2013,08,22,03,52,12.40
2013,08,22,03,53,12.50
2013,08,22,03,54,12.50
2013,08,22,03,55,12.50
2013,08,22,03,56,12.50
2013,08,22,03,57,12.50
2013,08,22,03,58,12.50
2013,08,22,03,59,12.50
2013,08,22,04,00,12.50
2013,08,22,04,01,12.60
2013,08,22,04,02,12.60
2013,08,22,04,03,12.60
2013,08,22,04,04,12.60
2013,08,22,04,05,12.60
2013,08,22,04,06,12.60
2013,08,22,04,07,12.60
2013,08,22,04,08,12.60
2013,08,22,04,09,12.60
2013,08,22,04,10,12.60
2013,08,22,04,11,12.60
2013,08,22,04,12,12.60
2013,08,22,04,13,12.60
2013,08,22,04,14,12.60
2013,08,22,04,15,12.60
2013,08,22,04,16,12.60
2013,08,22,04,17,12.50
2013,08,22,04,18,12.50
2013,08,22,04,19,12.50
2013,08,22,04,20,12.50
2013,08,22,04,21,12.50
2013,08,22,04,22,12.50
2013,08,22,04,23,12.50
2013,08,22,04,24,12.50
2013,08,22,04,25,12.50
2013,08,22,04,26,12.40
2013,08,22,04,27,12.40
2013,08,22,04,28,12.40
2013,08,22,04,29,12.40
2013,08,22,04,30,12.40
2013,08,22,04,31,12.40
2013,08,22,04,32,12.40
2013,08,22,04,33,12.40
2013,08,22,04,34,12.50
2013,08,22,04,35,12.50
2013,08,22,04,36,12.50
2013,08,22,04,37,12.50
2013,08,22,04,38,12.50
2013,08,22,04,39,12.50
2013,08,22,04,40,12.50
2013,08,22,04,41,12.50
2013,08,22,04,42,12.50
2013,08,22,04,43,12.50
2013,08,22,04,44,12.40
2013,08,22,04,45,12.40
2013,08,22,04,46,12.40
2013,08,22,04,47,12.40
2013,08,22,04,48,12.30
2013,08,22,04,49,12.30
2013,08,22,04,50,12.30
2013,08,22,04,51,12.30
2013,08,22,04,52,12.30
2013,08,22,04,53,12.30
2013,08,22,04,54,12.30
2013,08,22,04,55,12.30
2013,08,22,04,56,12.40
2013,08,22,04,57,12.40
2013,08,22,04,58,12.50
2013,08,22,04,59,12.50
2013,08,22,05,00,12.50
2013,08,22,05,01,12.50
2013,08,22,05,02,12.50
2013,08,22,05,03,12.50
2013,08,22,05,04,12.50
2013,08,22,05,05,12.50
2013,08,22,05,06,12.50
2013,08,22,05,07,12.50
2013,08,22,05,08,12.50
2013,08,22,05,09,12.60
2013,08,22,05,10,12.70
2013,08,22,05,11,12.80
2013,08,22,05,12,12.80
2013,08,22,05,13,12.90
2013,08,22,05,14,12.90
2013,08,22,05,15,13.00
2013,08,22,05,16,13.00
2013,08,22,05,17,13.10
2013,08,22,05,18,13.10
2013,08,22,05,19,13.20
2013,08,22,05,20,13.20
2013,08,22,05,21,13.30
2013,08,22,05,22,13.30
2013,08,22,05,23,13.40
2013,08,22,05,24,13.50
2013,08,22,05,25,13.60
2013,08,22,05,26,13.70
2013,08,22,05,27,13.70
2013,08,22,05,28,13.70
2013,08,22,05,29,13.80
2013,08,22,05,30,13.80
2013,08,22,05,31,13.90
2013,08,22,05,32,13.90
2013,08,22,05,33,14.00
2013,08,22,05,34,14.00
2013,08,22,05,35,14.10
2013,08,22,05,36,14.10
2013,08,22,05,37,14.20
2013,08,22,05,38,14.20
2013,08,22,05,39,14.10
2013,08,22,05,40,14.10
2013,08,22,05,41,14.10
2013,08,22,05,42,14.10
2013,08,22,05,43,14.00
2013,08,22,05,44,14.00
2013,08,22,05,45,14.00
2013,08,22,05,46,14.00
2013,08,22,05,47,14.00
2013,08,22,05,48,13.90
2013,08,22,05,49,13.90
2013,08,22,05,50,13.90
2013,08,22,05,51,13.90
2013,08,22,05,52,13.90
2013,08,22,05,53,13.90
2013,08,22,05,54,13.90
2013,08,22,05,55,13.90
2013,08,22,05,56,13.90
2013,08,22,05,57,13.90
2013,08,22,05,58,13.90
2013,08,22,05,59,13.90
2013,08,22,06,00,14.00
2013,08,22,06,01,14.00
2013,08,22,06,02,14.00
2013,08,22,06,03,14.00
2013,08,22,06,04,14.00
2013,08,22,06,05,14.00
2013,08,22,06,06,14.00
2013,08,22,06,07,14.00
2013,08,22,06,08,14.00
2013,08,22,06,09,14.00
2013,08,22,06,10,14.00
2013,08,22,06,11,14.00
2013,08,22,06,12,13.90
2013,08,22,06,13,13.90
2013,08,22,06,14,13.90
2013,08,22,06,15,13.90
2013,08,22,06,16,13.90
2013,08,22,06,17,13.90
2013,08,22,06,18,13.90
2013,08,22,06,19,13.90
2013,08,22,06,20,13.90
2013,08,22,06,21,13.90
2013,08,22,06,22,13.90
2013,08,22,06,23,13.90
2013,08,22,06,24,13.90
2013,08,22,06,25,13.90
2013,08,22,06,26,13.90
2013,08,22,06,27,13.80
2013,08,22,06,28,13.70
2013,08,22,06,29,13.70
2013,08,22,06,30,13.70
2013,08,22,06,31,13.60
2013,08,22,06,32,13.50
2013,08,22,06,33,13.40
2013,08,22,06,34,13.40
2013,08,22,06,35,13.30
2013,08,22,06,36,13.30
2013,08,22,06,37,13.20
2013,08,22,06,38,13.20
2013,08,22,06,39,13.10
2013,08,22,06,40,13.10
2013,08,22,06,41,13.00
2013,08,22,06,42,13.00
2013,08,22,06,43,12.90
2013,08,22,06,44,12.90
2013,08,22,06,45,12.90
2013,08,22,06,46,12.90
2013,08,22,06,47,12.80
2013,08,22,06,48,12.80
2013,08,22,06,49,12.80
2013,08,22,06,50,12.80
2013,08,22,06,51,12.80
2013,08,22,06,52,12.80
2013,08,22,06,53,12.80
2013,08,22,06,54,12.80
2013,08,22,06,55,12.80
2013,08,22,06,56,12.80
2013,08,22,06,57,12.80
2013,08,22,06,58,12.80
2013,08,22,06,59,12.80
2013,08,22,07,00,12.80
2013,08,22,07,01,12.80
2013,08,22,07,02,12.80
2013,08,22,07,03,12.80
2013,08,22,07,04,12.80
2013,08,22,07,05,12.80
2013,08,22,07,06,12.80
2013,08,22,07,07,12.80
2013,08,22,07,08,12.80
2013,08,22,07,09,12.80
2013,08,22,07,10,12.90
2013,08,22,07,11,12.90
2013,08,22,07,12,13.00
2013,08,22,07,13,13.00
2013,08,22,07,14,13.00
2013,08,22,07,15,13.20
2013,08,22,07,16,13.20
2013,08,22,07,17,13.30
2013,08,22,07,18,13.40
2013,08,22,07,19,13.50
2013,08,22,07,20,13.70
2013,08,22,07,21,13.80
2013,08,22,07,22,13.90
2013,08,22,07,23,14.00
2013,08,22,07,24,14.20
2013,08,22,07,25,14.20
2013,08,22,07,26,14.30
2013,08,22,07,27,14.40
2013,08,22,07,28,14.50
2013,08,22,07,29,14.50
2013,08,22,07,30,14.60
2013,08,22,07,31,14.60
2013,08,22,07,32,14.70
2013,08,22,07,33,14.70
2013,08,22,07,34,14.70
2013,08,22,07,35,14.80
2013,08,22,07,36,14.80
2013,08,22,07,37,14.80
2013,08,22,07,38,14.80
2013,08,22,07,39,14.80
2013,08,22,07,40,14.80
2013,08,22,07,41,14.80
2013,08,22,07,42,14.90
2013,08,22,07,43,14.90
2013,08,22,07,44,14.90
2013,08,22,07,45,15.00
2013,08,22,07,46,15.00
2013,08,22,07,47,15.10
2013,08,22,07,48,15.10
2013,08,22,07,49,15.20
2013,08,22,07,50,15.30
2013,08,22,07,51,15.30
2013,08,22,07,52,15.50
2013,08,22,07,53,15.50
2013,08,22,07,54,15.60
2013,08,22,07,55,15.70
2013,08,22,07,56,15.80
2013,08,22,07,57,15.90
2013,08,22,07,58,16.10
2013,08,22,07,59,16.10
2013,08,22,08,00,16.20
2013,08,22,08,01,16.30
2013,08,22,08,02,16.40
2013,08,22,08,03,16.40
2013,08,22,08,04,16.60
2013,08,22,08,05,16.70
2013,08,22,08,06,16.70
2013,08,22,08,07,16.80
2013,08,22,08,08,16.90
2013,08,22,08,09,17.00
2013,08,22,08,10,17.10
2013,08,22,08,11,17.10
2013,08,22,08,12,17.20
2013,08,22,08,13,17.30
2013,08,22,08,14,17.40
2013,08,22,08,15,17.50
2013,08,22,08,16,17.60
2013,08,22,08,17,17.80
2013,08,22,08,18,17.90
2013,08,22,08,19,18.00
2013,08,22,08,20,18.10
2013,08,22,08,21,18.30
2013,08,22,08,22,18.40
2013,08,22,08,23,18.50
2013,08,22,08,24,18.60
2013,08,22,08,25,18.60
2013,08,22,08,26,18.70
2013,08,22,08,27,18.80
2013,08,22,08,28,18.90
2013,08,22,08,29,18.90
2013,08,22,08,30,19.00
2013,08,22,08,31,19.10
2013,08,22,08,32,19.20
2013,08,22,08,33,19.20
2013,08,22,08,34,19.30
2013,08,22,08,35,19.30
2013,08,22,08,36,19.40
2013,08,22,08,37,19.40
2013,08,22,08,38,19.40
2013,08,22,08,39,19.50
2013,08,22,08,40,19.60
2013,08,22,08,41,19.70
2013,08,22,08,42,19.70
2013,08,22,08,43,19.70
2013,08,22,08,44,19.80
2013,08,22,08,45,19.80
2013,08,22,08,46,19.80
2013,08,22,08,47,19.80
2013,08,22,08,48,19.90
2013,08,22,08,49,19.90
2013,08,22,08,50,19.90
2013,08,22,08,51,19.90
2013,08,22,08,52,20.00
2013,08,22,08,53,20.10
2013,08,22,08,54,20.20
2013,08,22,08,55,20.20
2013,08,22,08,56,20.30
2013,08,22,08,57,20.40
2013,08,22,08,58,20.50
2013,08,22,08,59,20.50
2013,08,22,09,00,20.60
2013,08,22,09,01,20.70
2013,08,22,09,02,20.80
2013,08,22,09,03,20.90
2013,08,22,09,04,20.90
2013,08,22,09,05,21.00
2013,08,22,09,06,21.00
2013,08,22,09,07,21.10
2013,08,22,09,08,21.20
2013,08,22,09,09,21.20
2013,08,22,09,10,21.30
2013,08,22,09,11,21.30
2013,08,22,09,12,21.30
2013,08,22,09,13,21.30
2013,08,22,09,14,21.30
2013,08,22,09,15,21.30
2013,08,22,09,16,21.30
2013,08,22,09,17,21.30
2013,08,22,09,18,21.40
2013,08,22,09,19,21.40
2013,08,22,09,20,21.60
2013,08,22,09,21,21.60
2013,08,22,09,22,21.60
2013,08,22,09,23,21.70
2013,08,22,09,24,21.80
2013,08,22,09,25,21.90
2013,08,22,09,26,22.00
2013,08,22,09,27,22.00
2013,08,22,09,28,22.10
2013,08,22,09,29,22.10
2013,08,22,09,30,22.10
2013,08,22,09,31,22.10
2013,08,22,09,32,22.10
2013,08,22,09,33,22.10
2013,08,22,09,34,22.10
2013,08,22,09,35,22.20
2013,08,22,09,36,22.20
2013,08,22,09,37,22.30
2013,08,22,09,38,22.30
2013,08,22,09,39,22.20
2013,08,22,09,40,22.20
2013,08,22,09,41,22.10
2013,08,22,09,42,22.20
2013,08,22,09,43,22.20
2013,08,22,09,44,22.20
2013,08,22,09,45,22.30
2013,08,22,09,46,22.30
2013,08,22,09,47,22.30
2013,08,22,09,48,22.30
2013,08,22,09,49,22.30
2013,08,22,09,50,22.30
2013,08,22,09,51,22.20
2013,08,22,09,52,22.20
2013,08,22,09,53,22.20
2013,08,22,09,54,22.20
2013,08,22,09,55,22.20
2013,08,22,09,56,22.20
2013,08,22,09,57,22.30
2013,08,22,09,58,22.30
2013,08,22,09,59,22.40
2013,08,22,10,00,22.40
2013,08,22,10,01,22.30
2013,08,22,10,02,22.30
2013,08,22,10,03,22.30
2013,08,22,10,04,22.40
2013,08,22,10,05,22.40
2013,08,22,10,06,22.40
2013,08,22,10,07,22.50
2013,08,22,10,08,22.50
2013,08,22,10,09,22.60
2013,08,22,10,10,22.60
2013,08,22,10,11,22.70
2013,08,22,10,12,22.70
2013,08,22,10,13,22.70
2013,08,22,10,14,22.70
2013,08,22,10,15,22.70
2013,08,22,10,16,22.80
2013,08,22,10,17,22.80
2013,08,22,10,18,22.80
2013,08,22,10,19,22.80
2013,08,22,10,20,22.70
2013,08,22,10,21,22.70
2013,08,22,10,22,22.60
2013,08,22,10,23,22.60
2013,08,22,10,24,22.50
2013,08,22,10,25,22.40
2013,08,22,10,26,22.30
2013,08,22,10,27,22.30
2013,08,22,10,28,22.40
2013,08,22,10,29,22.40
2013,08,22,10,30,22.40
2013,08,22,10,31,22.50
2013,08,22,10,32,22.50
2013,08,22,10,33,22.50
2013,08,22,10,34,22.60
2013,08,22,10,35,22.70
2013,08,22,10,36,22.80
2013,08,22,10,37,22.80
2013,08,22,10,38,22.90
2013,08,22,10,39,22.90
2013,08,22,10,40,23.00
2013,08,22,10,41,23.10
2013,08,22,10,42,23.20
2013,08,22,10,43,23.30
2013,08,22,10,44,23.30
2013,08,22,10,45,23.50
2013,08,22,10,46,23.60
2013,08,22,10,47,23.70
2013,08,22,10,48,23.70
2013,08,22,10,49,23.70
2013,08,22,10,50,23.70
2013,08,22,10,51,23.70
2013,08,22,10,52,23.70
2013,08,22,10,53,23.70
2013,08,22,10,54,23.70
2013,08,22,10,55,23.70
2013,08,22,10,56,23.70
2013,08,22,10,57,23.70
2013,08,22,10,58,23.70
2013,08,22,10,59,23.70
2013,08,22,11,00,23.80
2013,08,22,11,01,23.70
2013,08,22,11,02,23.70
2013,08,22,11,03,23.70
2013,08,22,11,04,23.70
2013,08,22,11,05,23.70
2013,08,22,11,06,23.60
2013,08,22,11,07,23.50
2013,08,22,11,08,23.40
2013,08,22,11,09,23.60
2013,08,22,11,10,23.60
2013,08,22,11,11,23.60
2013,08,22,11,12,23.70
2013,08,22,11,13,23.70
2013,08,22,11,14,23.80
2013,08,22,11,15,23.90
2013,08,22,11,16,23.90
2013,08,22,11,17,23.90
2013,08,22,11,18,23.90
2013,08,22,11,19,24.00
2013,08,22,11,20,24.10
2013,08,22,11,21,24.10
2013,08,22,11,22,24.20
2013,08,22,11,23,24.30
2013,08,22,11,24,24.30
2013,08,22,11,25,24.30
2013,08,22,11,26,24.30
2013,08,22,11,27,24.30
2013,08,22,11,28,24.20
2013,08,22,11,29,24.20
2013,08,22,11,30,24.10
2013,08,22,11,31,24.10
2013,08,22,11,32,24.10
2013,08,22,11,33,24.10
2013,08,22,11,34,24.20
2013,08,22,11,35,24.20
2013,08,22,11,36,24.40
2013,08,22,11,37,24.40
2013,08,22,11,38,24.50
2013,08,22,11,39,24.50
2013,08,22,11,40,24.50
2013,08,22,11,41,24.50
2013,08,22,11,42,24.40
2013,08,22,11,43,24.40
2013,08,22,11,44,24.40
2013,08,22,11,45,24.50
2013,08,22,11,46,24.40
2013,08,22,11,47,24.40
2013,08,22,11,48,24.40
2013,08,22,11,49,24.40
2013,08,22,11,50,24.50
2013,08,22,11,51,24.50
2013,08,22,11,52,24.50
2013,08,22,11,53,24.50
2013,08,22,11,54,24.50
2013,08,22,11,55,24.50
2013,08,22,11,56,24.50
2013,08,22,11,57,24.50
2013,08,22,11,58,24.50
2013,08,22,11,59,24.50
2013,08,22,12,00,24.60
2013,08,22,12,01,24.60
2013,08,22,12,02,24.70
2013,08,22,12,03,24.70
2013,08,22,12,04,24.80
2013,08,22,12,05,24.70
2013,08,22,12,06,24.70
2013,08,22,12,07,24.70
2013,08,22,12,08,24.70
2013,08,22,12,09,24.70
2013,08,22,12,10,24.80
2013,08,22,12,11,24.80
2013,08,22,12,12,24.90
2013,08,22,12,13,24.90
2013,08,22,12,14,24.90
2013,08,22,12,15,24.80
2013,08,22,12,16,24.80
2013,08,22,12,17,24.80
2013,08,22,12,18,24.80
2013,08,22,12,19,24.80
2013,08,22,12,20,24.90
2013,08,22,12,21,24.90
2013,08,22,12,22,24.90
2013,08,22,12,23,25.00
2013,08,22,12,24,25.00
2013,08,22,12,25,25.00
2013,08,22,12,26,25.00
2013,08,22,12,27,25.00
2013,08,22,12,28,25.00
2013,08,22,12,29,25.00
2013,08,22,12,30,25.00
2013,08,22,12,31,25.10
2013,08,22,12,32,25.10
2013,08,22,12,33,25.20
2013,08,22,12,34,25.30
2013,08,22,12,35,25.40
2013,08,22,12,36,25.50
2013,08,22,12,37,25.50
2013,08,22,12,38,25.50
2013,08,22,12,39,25.50
2013,08,22,12,40,25.60
2013,08,22,12,41,25.70
2013,08,22,12,42,25.70
2013,08,22,12,43,25.70
2013,08,22,12,44,25.70
2013,08,22,12,45,25.70
2013,08,22,12,46,25.70
2013,08,22,12,47,25.80
2013,08,22,12,48,25.80
2013,08,22,12,49,25.90
2013,08,22,12,50,26.00
2013,08,22,12,51,25.90
2013,08,22,12,52,25.90
2013,08,22,12,53,25.90
2013,08,22,12,54,25.90
2013,08,22,12,55,25.90
2013,08,22,12,56,25.90
2013,08,22,12,57,25.90
2013,08,22,12,58,26.00
2013,08,22,12,59,26.10
2013,08,22,13,00,26.10
2013,08,22,13,01,26.10
2013,08,22,13,02,26.10
2013,08,22,13,03,26.10
2013,08,22,13,04,26.20
2013,08,22,13,05,26.20
2013,08,22,13,06,26.30
2013,08,22,13,07,26.30
2013,08,22,13,08,26.10
2013,08,22,13,09,26.10
2013,08,22,13,10,26.10
2013,08,22,13,11,26.00
2013,08,22,13,12,26.00
2013,08,22,13,13,26.00
2013,08,22,13,14,26.00
2013,08,22,13,15,26.00
2013,08,22,13,16,25.90
2013,08,22,13,17,25.80
2013,08,22,13,18,25.70
2013,08,22,13,19,25.70
2013,08,22,13,20,25.80
2013,08,22,13,21,25.80
2013,08,22,13,22,25.90
2013,08,22,13,23,25.90
2013,08,22,13,24,26.00
2013,08,22,13,25,26.10
2013,08,22,13,26,26.10
2013,08,22,13,27,26.20
2013,08,22,13,28,26.30
2013,08,22,13,29,26.40
2013,08,22,13,30,26.40
2013,08,22,13,31,26.50
2013,08,22,13,32,26.60
2013,08,22,13,33,26.60
2013,08,22,13,34,26.80
2013,08,22,13,35,26.80
2013,08,22,13,36,26.70
2013,08,22,13,37,26.50
2013,08,22,13,38,26.30
2013,08,22,13,39,26.00
2013,08,22,13,40,25.90
2013,08,22,13,41,25.70
2013,08,22,13,42,25.60
2013,08,22,13,43,25.60
2013,08,22,13,44,25.60
2013,08,22,13,45,25.50
2013,08,22,13,46,25.40
2013,08,22,13,47,25.40
2013,08,22,13,48,25.30
2013,08,22,13,49,25.20
2013,08,22,13,50,25.20
2013,08,22,13,51,25.30
2013,08,22,13,52,25.40
2013,08,22,13,53,25.60
2013,08,22,13,54,25.80
2013,08,22,13,55,25.90
2013,08,22,13,56,25.90
2013,08,22,13,57,26.10
2013,08,22,13,58,26.20
2013,08,22,13,59,26.30
2013,08,22,14,00,26.40
2013,08,22,14,01,26.50
2013,08,22,14,02,26.60
2013,08,22,14,03,26.70
2013,08,22,14,04,26.70
2013,08,22,14,05,26.80
2013,08,22,14,06,26.90
2013,08,22,14,07,26.90
2013,08,22,14,08,27.00
2013,08,22,14,09,27.10
2013,08,22,14,10,27.20
2013,08,22,14,11,27.30
2013,08,22,14,12,27.30
2013,08,22,14,13,27.30
2013,08,22,14,14,27.40
2013,08,22,14,15,27.50
2013,08,22,14,16,27.60
2013,08,22,14,17,27.80
2013,08,22,14,18,27.90
2013,08,22,14,19,28.00
2013,08,22,14,20,28.10
2013,08,22,14,21,28.10
2013,08,22,14,22,28.10
2013,08,22,14,23,28.10
2013,08,22,14,24,28.10
2013,08,22,14,25,28.00
2013,08,22,14,26,27.70
2013,08,22,14,27,27.50
2013,08,22,14,28,27.30
2013,08,22,14,29,27.20
2013,08,22,14,30,27.10
2013,08,22,14,31,26.80
2013,08,22,14,32,26.60
2013,08,22,14,33,26.30
2013,08,22,14,34,26.00
2013,08,22,14,35,25.90
2013,08,22,14,36,25.90
2013,08,22,14,37,26.00
2013,08,22,14,38,26.00
2013,08,22,14,39,26.10
2013,08,22,14,40,26.10
2013,08,22,14,41,25.90
2013,08,22,14,42,25.80
2013,08,22,14,43,25.80
2013,08,22,14,44,25.70
2013,08,22,14,45,25.60
2013,08,22,14,46,25.60
2013,08,22,14,47,25.60
2013,08,22,14,48,25.70
2013,08,22,14,49,25.70
2013,08,22,14,50,25.60
2013,08,22,14,51,25.60
2013,08,22,14,52,25.60
2013,08,22,14,53,25.60
2013,08,22,14,54,25.60
2013,08,22,14,55,25.60
2013,08,22,14,56,25.80
2013,08,22,14,57,25.80
2013,08,22,14,58,25.90
2013,08,22,14,59,25.90
2013,08,22,15,00,25.80
2013,08,22,15,01,25.80
2013,08,22,15,02,25.90
2013,08,22,15,03,25.90
2013,08,22,15,04,26.00
2013,08,22,15,05,26.00
2013,08,22,15,06,26.00
2013,08,22,15,07,26.10
2013,08,22,15,08,26.00
2013,08,22,15,09,25.80
2013,08,22,15,10,25.60
2013,08,22,15,11,25.50
2013,08,22,15,12,25.50
2013,08,22,15,13,25.40
2013,08,22,15,14,25.40
2013,08,22,15,15,25.40
2013,08,22,15,16,25.40
2013,08,22,15,17,25.40
2013,08,22,15,18,25.40
2013,08,22,15,19,25.40
2013,08,22,15,20,25.30
2013,08,22,15,21,25.30
2013,08,22,15,22,25.30
2013,08,22,15,23,25.20
2013,08,22,15,24,25.20
2013,08,22,15,25,25.20
2013,08,22,15,26,25.20
2013,08,22,15,27,25.20
2013,08,22,15,28,25.10
2013,08,22,15,29,25.00
2013,08,22,15,30,25.00
2013,08,22,15,31,24.90
2013,08,22,15,32,24.80
2013,08,22,15,33,24.60
2013,08,22,15,34,24.60
2013,08,22,15,35,24.50
2013,08,22,15,36,24.40
2013,08,22,15,37,24.30
2013,08,22,15,38,24.30
2013,08,22,15,39,24.30
2013,08,22,15,40,24.40
2013,08,22,15,41,24.40
2013,08,22,15,42,24.40
2013,08,22,15,43,24.30
2013,08,22,15,44,24.30
2013,08,22,15,45,24.30
2013,08,22,15,46,24.30
2013,08,22,15,47,24.30
2013,08,22,15,48,24.30
2013,08,22,15,49,24.20
2013,08,22,15,50,24.20
2013,08,22,15,51,24.20
2013,08,22,15,52,24.20
2013,08,22,15,53,24.30
2013,08,22,15,54,24.40
2013,08,22,15,55,24.40
2013,08,22,15,56,24.50
2013,08,22,15,57,24.60
2013,08,22,15,58,24.60
2013,08,22,15,59,24.70
2013,08,22,16,00,24.70
2013,08,22,16,01,24.80
2013,08,22,16,02,24.90
2013,08,22,16,03,24.90
2013,08,22,16,04,24.80
2013,08,22,16,05,24.90
2013,08,22,16,06,24.90
2013,08,22,16,07,25.00
2013,08,22,16,08,25.20
2013,08,22,16,09,25.30
2013,08,22,16,10,25.30
2013,08,22,16,11,25.40
2013,08,22,16,12,25.50
2013,08,22,16,13,25.60
2013,08,22,16,14,25.70
2013,08,22,16,15,25.80
2013,08,22,16,16,25.80
2013,08,22,16,17,25.80
2013,08,22,16,18,25.80
2013,08,22,16,19,25.90
2013,08,22,16,20,25.80
2013,08,22,16,21,25.70
2013,08,22,16,22,25.60
2013,08,22,16,23,25.60
2013,08,22,16,24,25.60
2013,08,22,16,25,25.70
2013,08,22,16,26,25.80
2013,08,22,16,27,25.90
2013,08,22,16,28,26.00
2013,08,22,16,29,26.20
2013,08,22,16,30,26.30
2013,08,22,16,31,26.40
2013,08,22,16,32,26.50
2013,08,22,16,33,26.60
2013,08,22,16,34,26.60
2013,08,22,16,35,26.60
2013,08,22,16,36,26.70
2013,08,22,16,37,26.70
2013,08,22,16,38,26.60
2013,08,22,16,39,26.50
2013,08,22,16,40,26.40
2013,08,22,16,41,26.40
2013,08,22,16,42,26.50
2013,08,22,16,43,26.60
2013,08,22,16,44,26.60
2013,08,22,16,45,26.60
2013,08,22,16,46,26.70
2013,08,22,16,47,26.70
2013,08,22,16,48,26.70
2013,08,22,16,49,26.60
2013,08,22,16,50,26.70
2013,08,22,16,51,26.80
2013,08,22,16,52,26.80
2013,08,22,16,53,26.80
2013,08,22,16,54,26.70
2013,08,22,16,55,26.60
2013,08,22,16,56,26.60
2013,08,22,16,57,26.70
2013,08,22,16,58,26.80
2013,08,22,16,59,26.80
2013,08,22,17,00,26.80
2013,08,22,17,01,26.90
2013,08,22,17,02,26.90
2013,08,22,17,03,26.90
2013,08,22,17,04,26.90
2013,08,22,17,05,26.90
2013,08,22,17,06,27.00
2013,08,22,17,07,26.90
2013,08,22,17,08,26.90
2013,08,22,17,09,26.90
2013,08,22,17,10,26.90
2013,08,22,17,11,26.80
2013,08,22,17,12,26.80
2013,08,22,17,13,26.70
2013,08,22,17,14,26.80
2013,08,22,17,15,26.80
2013,08,22,17,16,26.60
2013,08,22,17,17,26.50
2013,08,22,17,18,26.40
2013,08,22,17,19,26.30